Regional Weather Roundup
Issued by NWS

Current Version | Previous Version | Text Only | Print | Product List | Glossary On
Versions: 1 2 3 4 5 6 7 8 9 10 11 12 13 14 15 16 17 18 19 20 21 22 23 24 25 26 27 28
000
ASUS42 KTBW 061516
RWRFL
FLORIDA REGIONAL WEATHER ROUNDUP
NATIONAL WEATHER SERVICE TAMPA BAY RUSKIN FL
1100 AM EDT FRI MAY 06 2016

NOTE: "FAIR" INDICATES FEW OR NO CLOUDS BELOW 12,000 FEET WITH NO
SIGNIFICANT WEATHER AND/OR OBSTRUCTIONS TO VISIBILITY.

FLZ001>010-012>015-112-114-115-061600-
PANHANDLE FLORIDA

CITY           SKY/WX    TMP DP  RH WIND       PRES   REMARKS
PENSACOLA      SUNNY     65  43  44 N13       30.02S
PENSACOLA NAS  SUNNY     65  42  43 N10       30.02S
MILTON NAS     SUNNY     64  45  49 VRB7      30.02
CRESTVIEW      SUNNY     66  44  45 NE9G17    30.03S
DUKE FIELD     SUNNY     65  41  42 N12G20    29.99F
VALPARAISO     SUNNY     64  42  44 N14G21    30.00S
MARY ESTHER    SUNNY     65  42  42 N16       30.00R
TRI COUNTY     FAIR      64  45  49 N14       30.00S
PANAMA CITY    FAIR      64  42  44 NW13      29.98S
TYNDALL AFB    SUNNY     64  44  47 N9        29.99R
APALACHICOLA   SUNNY     66  44  45 NW14      29.96S

STATION/POSITION SKY/WX   TEMP    WIND        PRES    WAVE   SWELL
                          AIR SEA DIR/SP/G            HT/PER HT/PER
                          (F)     (DEG/KT/KT) (MB)    (FT/S) (FT/S)
30.1N   87.6W              61 74   20/ 12/ 16 1016.2    2/ 3
29.2N   88.2W              67 74  360/ 12/ 16 1016.4R
28.8N   86.0W              67 77   40/ 12/ 16 1015.6R   4/ 6   3/ 6
PANAMA CITY BEAC           59 67  350/ 13/ 16 1015.9R
TOWER C                    60     350/ 11/ 12 1015.6R
28.5N   84.5W              67 73  360/ 10/ 12 1014.5    4/ 7   3/ 7

$$
FLZ011-016>038-118-127-128-134-139-239-061600-
NORTH FLORIDA

CITY           SKY/WX    TMP DP  RH WIND       PRES   REMARKS
MARIANNA       SUNNY     64  45  49 N12       29.98R
TALLAHASSEE    MOSUNNY   65  41  41 NW13      29.95S
PERRY          SUNNY     64  43  46 NW8       29.95S
LIVE OAK       FAIR      64  43  45 NW10      29.95S
CROSS CITY       N/A     65  41  41 VRB3      29.93S
LAKE CITY      FAIR      63  43  48 NW8       29.92S
GAINESVILLE    SUNNY     63  43  48 W6        29.91S
WILLISTON      FAIR      68  45  42 W9        29.92F
PALATKA        FAIR      64  41  42 NW8G17    29.91S
MAYPORT NAS    SUNNY     61  43  51 NW7       29.90S
JACKSONVILLE   SUNNY     64  43  46 NW8       29.90S
JAX NAS        SUNNY     63  40  42 VRB5      29.91S
JAX CECIL      SUNNY     63  41  45 NW9       29.91S
FERNANDINA BEA FAIR      64  43  45 W3        29.88S
ST AUGUSTINE   SUNNY     65  44  46 NW8       29.91S
PALM COAST     SUNNY     64  45  48 NW8       29.90S

STATION/POSITION SKY/WX   TEMP    WIND        PRES    WAVE   SWELL
                          AIR SEA DIR/SP/G            HT/PER HT/PER
                          (F)     (DEG/KT/KT) (MB)    (FT/S) (FT/S)
SHELL POINT                59     340/ 11/ 16 1012.9
KEATON BEACH               60     300/ 10/ 11 1013.6R
CEDAR KEY                  62     330/  7/ 10 1013.9R
FERNANDINA                 60 69  290/  6/  8 1012.2R
30.7N   81.3W                 71                N/A     2/ 4
MAYPORT                    57 70  310/  6/ 10 1012.5R
ST AUGUSTINE               61 69  330/  9/ 11 1013.1F

$$
FLZ040-043>046-052-053-057-058-063-144-061600-
INTERIOR CENTRAL FLORIDA

CITY           SKY/WX    TMP DP  RH WIND       PRES   REMARKS
OCALA          SUNNY     66  43  42 W6        29.92S
THE VILLAGES     N/A     70  45  40 W10       29.82F
LEESBURG       SUNNY     70  43  37 VRB7      29.93R
SANFORD        SUNNY     69  44  40 NW14      29.91R
ORLANDO EXEC   SUNNY     72  43  35 NW10      29.92R
ORLANDO INTL   SUNNY     71  42  35 NW10      29.92R
KISSIMMEE      SUNNY     72  45  37 NW10      29.93R
WINTER HAVEN   SUNNY     71  45  39 NW8       29.94R
LAKELAND       SUNNY     68  46  45 CALM      29.94R
BARTOW         SUNNY     68  41  37 NW9       29.94R
OKEECHOBEE     SUNNY     72  45  37 NW9       29.92S

$$
FLZ041-047-054-059-064-141-147-061600-
EAST CENTRAL FLORIDA

CITY           SKY/WX    TMP DP  RH WIND       PRES   REMARKS
ORMOND BEACH   SUNNY     66  45  45 W9        29.90S
DAYTONA BEACH  SUNNY     69  44  40 NW9       29.90R
DELAND           N/A     68  43  40 W9        29.92R
NEW SMYRNA BEA SUNNY     64  43  45 NW9G17    29.89R
JFK SPACE CTR  SUNNY     71  44  38 NW9       29.89R
TITUSVILLE     SUNNY     70  39  32 NW12      29.91R
CAPE CANAVERAL SUNNY     72  44  37 NW10      29.89R
PATRICK AFB    SUNNY     71  46  40 NW8       29.90R
MELBOURNE      SUNNY     73  44  35 N8        29.90S
VERO BEACH     SUNNY     73  38  27 NW13      29.92R
FT PIERCE      SUNNY     72  41  32 NW10      29.91R
STUART         SUNNY     77  39  25 NW9       29.92R

STATION/POSITION SKY/WX   TEMP    WIND        PRES    WAVE   SWELL
                          AIR SEA DIR/SP/G            HT/PER HT/PER
                          (F)     (DEG/KT/KT) (MB)    (FT/S) (FT/S)
28.5N   80.2W              69 77  320/ 16/ 19 1012.0R
28.9N   78.5W              72 79  290/ 14/ 17 1010.4R
TRIDENT PIER               67 76  310/  8/ 10 1012.3R
28.4N   80.5W                 75                N/A     2/ 6
27.5N   80.2W                 74                N/A     3/ 5

$$
FLZ050-056-061-142-242-148-248-149-249-151-251-155-255-
160-260-061600-
WEST CENTRAL FLORIDA

CITY           SKY/WX    TMP DP  RH WIND       PRES   REMARKS
CRYSTAL RIVER  FAIR      68  45  42 W6        29.93F
INVERNESS      FAIR      68  46  45 N3        29.94S
BROOKSVILLE    SUNNY     69  44  40 VRB7      29.95R
ZEPHYRHILLS    FAIR      69  42  38 N7        29.95R
CLEARWATER AIR FAIR      70  46  43 NW12      29.94R
ST PETE CLEARW SUNNY     72  47  40 N6        29.95R
TAMPA INTL     MOSUNNY   72  45  37 N8        29.95R
TAMPA EXEC     SUNNY     72  46  40 N6        29.95R
PLANT CITY     SUNNY     72  48  43 N6        29.96R
MACDILL AFB    SUNNY     74  44  35 N7        29.94R
PETER O KNIGHT SUNNY     73  46  38 NW5       29.95R
ST PETERSBURG  MOSUNNY   71  49  45 NE9       29.93R
SARASOTA       MOSUNNY   75  45  34 NW8       29.92R
VENICE         NOT AVBL

STATION/POSITION SKY/WX   TEMP    WIND        PRES    WAVE   SWELL
                          AIR SEA DIR/SP/G            HT/PER HT/PER
                          (F)     (DEG/KT/KT) (MB)    (FT/S) (FT/S)
27.3N   84.2W                 78                N/A     4/ 7
CLEARWATER BEACH           66 74  360/ 14/ 16 1013.5R
MIDDLE TAMPA BAY           69      30/ 13/ 17 1013.4R
VENICE                     72 78  340/  8/ 11 1013.2R

$$
FLZ066-069-070-075>078-162-262-165-265-061600-
SOUTHWEST FLORIDA AND KEYS

CITY           SKY/WX    TMP DP  RH WIND       PRES   REMARKS
PUNTA GORDA    SUNNY     76  46  34 N6        29.94R
FT MYERS       SUNNY     75  45  34 N8        29.92R
SOUTHWEST INTL SUNNY     74  44  34 NE7       29.93R
NAPLES         SUNNY     76  44  32 N8        29.93R
MARCO ISLAND   SUNNY     75  46  35 N8        29.93R
MARATHON       SUNNY     77  58  51 NE9       29.92R
KEY WEST NAS   MOSUNNY   77  61  57 NE8       29.92R
KEY WEST INTL  MOSUNNY   77  63  61 NE9       29.93R

STATION/POSITION SKY/WX   TEMP    WIND        PRES    WAVE   SWELL
                          AIR SEA DIR/SP/G            HT/PER HT/PER
                          (F)     (DEG/KT/KT) (MB)    (FT/S) (FT/S)
NAPLES                        78              1012.9R
26.0N   85.6W              75 79   10/ 10/ 14 1014.7R   4/ 6   3/ 6
DRY TORTUGAS               74      20/ 12/ 12 1013.9R
SAND KEY                   74      20/ 12/ 17 1013.7R
LONG KEY                   73 78   30/ 11/ 13 1013.3R
MOLASSES REEF              74 78  350/ 11/ 12 1013.3R

$$
FLZ067-068-071>074-168-172>174-061600-
SOUTHEAST FLORIDA

CITY           SKY/WX    TMP DP  RH WIND       PRES   REMARKS
W PALM BEACH   MOSUNNY   75  44  33 NW9       29.91R
FT LAUDER-EXEC SUNNY     74  49  41 VRB5      29.90R
FT LAUDERDALE  MOSUNNY   76  52  43 N7        29.90R
POMPANO BEACH  SUNNY     76  51  41 W9        29.90S
PEMBROKE PINES SUNNY     77  52  41 NW9       29.92R
OPA LOCKA      SUNNY     76  52  43 CALM      29.91R
MIAMI          MOSUNNY   75  52  44 VRB7      29.91S
WEST KENDALL   SUNNY     77  51  40 VRB3      29.91R
HOMESTEAD      PTSUNNY   76  49  38 VRB2      29.91R

STATION/POSITION SKY/WX   TEMP    WIND        PRES    WAVE   SWELL
                          AIR SEA DIR/SP/G            HT/PER HT/PER
                          (F)     (DEG/KT/KT) (MB)    (FT/S) (FT/S)
PORT EVERGLADES            73     330/  6/  9 1012.3R
VIRGINIA KEY               74 79  360/  3/  8 1012.9R
LAKE WORTH                 71 78  330/ 10/ 12 1012.0R
SETTLEMENT POINT           74     300/  9/ 10 1012.6R

$$





USA.gov is the U.S. government's official web portal to all federal, state and local government web resources and services.